Location: Monteux
(44.0348°N, 4.9972°E)
Time: 04:40:11
(UTC+00:00)

Cosmos 2341 Rocket - Pass Details

Date: 20 April 2021
Orbit: 969 x 1003 km, 82.9° (Epoch: 11 May)

Event Time Altitude Azimuth Distance (km) Brightness Sun altitude
Rises 01:27:41 0° 346° (NNW) 3,715 7.6 -29.2°
Reaches altitude 10° 01:30:19 10° 340° (NNW) 2,767 6.8 -28.9°
Enters shadow 01:35:29 42° 290° (WNW) 1,390 4.6 -28.4°
